• In Portugal
  • List of Countries
  • For 7 days
  • Water Temperature
  • Satellite Maps
  • Weather Map
  • Weather Widgets
  • user-avatar
    Login

    Hourly Weather Bobo-Dioulasso

    Today, 21 September, Thursday

    Time Temperature Precipitation Wind Pressure Humidity
    00:00 +26°C° 0.2 mm 2 mps 723 mmHg 89%
    01:00 +26°C° 0.1 mm 2 mps 722 mmHg 90%
    02:00 +26°C° 0.1 mm 2 mps 722 mmHg 91%
    03:00 +26°C° 0.1 mm 3 mps 722 mmHg 91%
    04:00 +25°C° 0 mm 3 mps 722 mmHg 91%
    05:00 +25°C° 0 mm 2 mps 722 mmHg 91%
    06:00 +25°C° 0 mm 2 mps 722 mmHg 91%
    07:00 +26°C° 0 mm 3 mps 723 mmHg 87%
    08:00 +27°C° 0 mm 3 mps 723 mmHg 83%
    09:00 +28°C° 0 mm 3 mps 724 mmHg 79%
    10:00 +29°C° 0.1 mm 3 mps 724 mmHg 72%
    11:00 +31°C° 0.1 mm 3 mps 724 mmHg 65%
    12:00 +34°C° 0.1 mm 3 mps 723 mmHg 58%
    13:00 +34°C° 0.7 mm 2 mps 723 mmHg 57%
    14:00 +34°C° 0.7 mm 2 mps 722 mmHg 56%
    15:00 +33°C° 0.7 mm 1 mps 721 mmHg 55%
    16:00 +32°C° 0 mm 1 mps 721 mmHg 58%
    17:00 +31°C° 0 mm 1 mps 721 mmHg 62%
    18:00 +30°C° 0 mm 1 mps 721 mmHg 65%
    19:00 +30°C° 0.2 mm 1 mps 722 mmHg 68%
    20:00 +29°C° 0.2 mm 1 mps 722 mmHg 71%
    21:00 +28°C° 0.2 mm 1 mps 723 mmHg 74%
    22:00 +27°C° 0.1 mm 2 mps 722 mmHg 77%
    23:00 +27°C° 0.1 mm 2 mps 722 mmHg 80%

    Tomorrow, 22 September, Friday

    Time Temperature Precipitation Wind Pressure Humidity
    00:00 +26°C° 0.1 mm 2 mps 722 mmHg 83%
    01:00 +26°C° 2.3 mm 2 mps 722 mmHg 86%
    02:00 +25°C° 2.3 mm 2 mps 722 mmHg 89%
    03:00 +25°C° 2.3 mm 1 mps 722 mmHg 93%
    04:00 +25°C° 1.5 mm 2 mps 722 mmHg 92%
    05:00 +25°C° 1.5 mm 2 mps 722 mmHg 91%
    06:00 +25°C° 1.5 mm 2 mps 722 mmHg 90%
    07:00 +26°C° 0 mm 2 mps 723 mmHg 87%
    08:00 +26°C° 0 mm 2 mps 723 mmHg 84%
    09:00 +27°C° 0 mm 1 mps 724 mmHg 81%
    10:00 +29°C° 0.6 mm 1 mps 724 mmHg 75%
    11:00 +30°C° 0.6 mm 1 mps 723 mmHg 70%
    12:00 +31°C° 0.6 mm 1 mps 723 mmHg 64%
    13:00 +31°C° 0.4 mm 1 mps 722 mmHg 63%
    14:00 +31°C° 0.4 mm 1 mps 722 mmHg 62%
    15:00 +31°C° 0.4 mm 1 mps 721 mmHg 61%
    16:00 +30°C° 1.9 mm 1 mps 721 mmHg 70%
    17:00 +28°C° 1.9 mm 1 mps 722 mmHg 79%
    18:00 +26°C° 1.9 mm 1 mps 722 mmHg 87%
    19:00 +26°C° 1.2 mm 1 mps 722 mmHg 89%
    20:00 +25°C° 1.2 mm 1 mps 723 mmHg 90%
    21:00 +25°C° 1.2 mm 2 mps 724 mmHg 91%
    22:00 +25°C° 0.7 mm 2 mps 723 mmHg 92%
    23:00 +25°C° 0.7 mm 1 mps 723 mmHg 93%

    Day after tomorrow, 23 September, Saturday

    Time Temperature Precipitation Wind Pressure Humidity
    00:00 +24°C° 0.7 mm 1 mps 723 mmHg 94%
    01:00 +24°C° 0.1 mm 1 mps 723 mmHg 95%
    02:00 +24°C° 0.1 mm 1 mps 723 mmHg 96%
    03:00 +24°C° 0.1 mm 2 mps 722 mmHg 96%
    04:00 +24°C° 0 mm 2 mps 723 mmHg 96%
    05:00 +23°C° 0 mm 2 mps 723 mmHg 96%
    06:00 +23°C° 0 mm 2 mps 723 mmHg 96%
    07:00 +24°C° 0 mm 2 mps 724 mmHg 93%
    08:00 +25°C° 0 mm 3 mps 724 mmHg 90%
    09:00 +25°C° 0 mm 3 mps 725 mmHg 88%
    10:00 +26°C° 0 mm 3 mps 725 mmHg 84%
    11:00 +27°C° 0 mm 4 mps 725 mmHg 80%
    12:00 +28°C° 0 mm 4 mps 725 mmHg 76%
    13:00 +29°C° 0.1 mm 3 mps 724 mmHg 72%
    14:00 +30°C° 0.1 mm 3 mps 723 mmHg 69%
    15:00 +31°C° 0.1 mm 2 mps 723 mmHg 66%
    16:00 +30°C° 0.6 mm 2 mps 723 mmHg 71%
    17:00 +29°C° 0.6 mm 2 mps 723 mmHg 76%
    18:00 +28°C° 0.6 mm 2 mps 723 mmHg 80%
    19:00 +27°C° 0 mm 1 mps 724 mmHg 83%
    20:00 +26°C° 0 mm 1 mps 724 mmHg 86%
    21:00 +26°C° 0 mm 1 mps 725 mmHg 88%
    22:00 +25°C° 0 mm 1 mps 725 mmHg 90%
    23:00 +25°C° 0 mm 1 mps 725 mmHg 91%

    24 September, Sunday

    Time Temperature Precipitation Wind Pressure Humidity
    00:00 +25°C° 0 mm 1 mps 725 mmHg 92%
    01:00 +24°C° 0 mm 1 mps 725 mmHg 93%
    02:00 +24°C° 0 mm 1 mps 724 mmHg 94%
    03:00 +24°C° 0 mm 1 mps 724 mmHg 94%
    04:00 +24°C° 0 mm 1 mps 724 mmHg 94%
    05:00 +23°C° 0 mm 1 mps 724 mmHg 94%
    06:00 +23°C° 0 mm 1 mps 724 mmHg 94%
    07:00 +25°C° 0 mm 2 mps 725 mmHg 86%
    08:00 +27°C° 0 mm 2 mps 725 mmHg 78%
    09:00 +28°C° 0 mm 2 mps 725 mmHg 70%
    10:00 +30°C° 0 mm 2 mps 725 mmHg 64%
    11:00 +32°C° 0 mm 2 mps 725 mmHg 58%
    12:00 +34°C° 0 mm 2 mps 724 mmHg 52%
    13:00 +35°C° 0 mm 2 mps 724 mmHg 49%
    14:00 +35°C° 0 mm 1 mps 723 mmHg 47%
    15:00 +36°C° 0 mm 1 mps 723 mmHg 44%
    16:00 +34°C° 0 mm 1 mps 722 mmHg 49%
    17:00 +32°C° 0 mm 1 mps 722 mmHg 54%
    18:00 +31°C° 0 mm 1 mps 722 mmHg 59%
    19:00 +30°C° 0 mm 1 mps 723 mmHg 61%
    20:00 +29°C° 0 mm 1 mps 723 mmHg 62%
    21:00 +28°C° 0 mm 1 mps 724 mmHg 64%
    22:00 +28°C° 0.1 mm 1 mps 723 mmHg 67%
    23:00 +27°C° 0.1 mm 1 mps 723 mmHg 70%

    25 September, Monday

    Time Temperature Precipitation Wind Pressure Humidity
    00:00 +27°C° 0.1 mm 2 mps 723 mmHg 73%
    01:00 +26°C° 0.6 mm 2 mps 723 mmHg 78%
    02:00 +25°C° 0.6 mm 2 mps 722 mmHg 84%
    03:00 +24°C° 0.6 mm 2 mps 722 mmHg 89%
    04:00 +24°C° 0.2 mm 2 mps 722 mmHg 90%
    05:00 +24°C° 0.2 mm 2 mps 723 mmHg 91%
    06:00 +24°C° 0.2 mm 2 mps 723 mmHg 92%
    07:00 +25°C° 0.5 mm 2 mps 723 mmHg 91%
    08:00 +25°C° 0.5 mm 2 mps 724 mmHg 90%
    09:00 +26°C° 0.5 mm 2 mps 724 mmHg 89%
    10:00 +26°C° 1.2 mm 2 mps 724 mmHg 87%
    11:00 +27°C° 1.2 mm 2 mps 723 mmHg 86%
    12:00 +27°C° 1.2 mm 1 mps 723 mmHg 85%
    13:00 +29°C° 0 mm 2 mps 722 mmHg 77%
    14:00 +30°C° 0 mm 3 mps 722 mmHg 69%
    15:00 +33°C° 0 mm 3 mps 721 mmHg 61%
    16:00 +30°C° 0 mm 3 mps 721 mmHg 66%
    17:00 +29°C° 0 mm 2 mps 721 mmHg 71%
    18:00 +28°C° 0 mm 2 mps 721 mmHg 76%
    19:00 +27°C° 0.1 mm 2 mps 722 mmHg 79%
    20:00 +27°C° 0.1 mm 1 mps 722 mmHg 82%
    21:00 +26°C° 0.1 mm 1 mps 722 mmHg 86%
    22:00 +25°C° 0.5 mm 1 mps 722 mmHg 87%
    23:00 +25°C° 0.5 mm 1 mps 722 mmHg 88%

    26 September, Tuesday

    Time Temperature Precipitation Wind Pressure Humidity
    00:00 +25°C° 0.5 mm 1 mps 722 mmHg 90%
    01:00 +25°C° 0.4 mm 1 mps 722 mmHg 91%
    02:00 +24°C° 0.4 mm 2 mps 722 mmHg 92%
    03:00 +24°C° 0.4 mm 2 mps 721 mmHg 93%
    04:00 +24°C° 0 mm 2 mps 721 mmHg 93%
    05:00 +24°C° 0 mm 2 mps 722 mmHg 93%
    06:00 +24°C° 0 mm 2 mps 722 mmHg 93%
    07:00 +25°C° 0.1 mm 2 mps 722 mmHg 88%
    08:00 +27°C° 0.1 mm 2 mps 723 mmHg 83%
    09:00 +29°C° 0.1 mm 3 mps 723 mmHg 77%
    10:00 +30°C° 0.2 mm 3 mps 723 mmHg 69%
    11:00 +33°C° 0.2 mm 3 mps 722 mmHg 61%
    12:00 +35°C° 0.2 mm 3 mps 722 mmHg 53%
    13:00 +35°C° 0.2 mm 3 mps 721 mmHg 52%
    14:00 +35°C° 0.2 mm 3 mps 721 mmHg 52%
    15:00 +35°C° 0.2 mm 3 mps 720 mmHg 51%
    16:00 +34°C° 0 mm 3 mps 720 mmHg 57%
    17:00 +31°C° 0 mm 2 mps 720 mmHg 62%
    18:00 +30°C° 0 mm 2 mps 720 mmHg 68%
    19:00 +29°C° 0 mm 2 mps 721 mmHg 69%
    20:00 +29°C° 0 mm 1 mps 721 mmHg 70%
    21:00 +28°C° 0 mm 1 mps 722 mmHg 70%
    22:00 +28°C° 0.3 mm 1 mps 721 mmHg 73%
    23:00 +27°C° 0.3 mm 1 mps 721 mmHg 75%
    Show more